Current weather by "City, St" or "zip code"  
 
Advertise Here

Current Conditions: Hot Springs County Airport, WY

Fair


52.0 F

Last Updated on Sep 16 2021, 8:55 pm MDT
Humidity: 50%
Wind Speed: N 16.1 G 20.7 mph
Barometer 30.11 in
Dewpoint: 33.6 F
Visibility: 10.00 mi
Precip: --
Heat Index: NA
Wind Chill: 47 F
Current conditions at:

Hot Springs County Airport, WY (KHSG)

Lat: 43.7136 Lon: 108.3897

Local Radar Image active severe weather and emergency alerts image image weather storm and storm spotter reports image weather observation monitoring service image
Local
Radar
Active
Alerts
Storm Reports Obs
Monitoring

Sign-up For Email & Text Message Weather Alert Notification Services



Advertise Here

Observation History for Hot Springs County Airport, WY


Time Wind
(mph)
Vis
(mi)
Weather Precip (in) Temperature (F) Relative
Humidity
Wind
Chill
(F)
Heat
Index
(F)
Pressure
Air Dwpt altimeter
(in)
sea level
(mb)
Rmks
8:55 pm MDT N 16.1 G 20.7 10.00 Fair -- 52.0 33.6 50% 47 NA 30.11 M
7:55 pm MDT N 12.7 10.00 Fair -- 55.0 32.9 44% 52 NA 30.06 M
6:55 pm MDT N 16.1 G 21.9 10.00 Fair -- 60.0 32.9 36% 57 NA 30.01 M
5:55 pm MDT NW 20.7 G 28.8 10.00 Fair and Breezy -- 63.0 33.1 32% 61 NA 29.97 M
4:55 pm MDT N 18.4 G 24.2 10.00 Fair -- 69.0 35.1 29% NA NA 29.91 M
3:55 pm MDT N 15.0 10.00 Partly Cloudy -- 75.0 34.0 22% NA NA 29.86 M
2:55 pm MDT N 16.1 G 26.5 10.00 Partly Cloudy -- 76.0 34.0 22% NA NA 29.84 M
1:55 pm MDT N 17.3 G 24.2 10.00 Partly Cloudy -- 77.0 35.1 22% NA NA 29.81 M
12:55 pm MDT W 26.5 G 31.1 10.00 Fair and Windy -- 82.0 29.3 15% NA 80 29.79 M
10:55 am MDT SW 23.0 G 28.8 10.00 Fair and Breezy -- 78.0 28.0 16% NA NA 29.80 M
9:55 am MDT SW 19.6 G 27.6 10.00 Fair -- 76.0 27.9 17% NA NA 29.81 M
8:55 am MDT NE 3.5 10.00 Fair -- 64.0 28.6 26% NA NA 29.82 M
7:55 am MDT N 6.9 10.00 Fair -- 59.0 25.9 28% 58 NA 29.82 M
6:55 am MDT W 11.5 10.00 Fair -- 57.0 25.0 29% 54 NA 29.80 M
5:55 am MDT W 11.5 10.00 Fair -- 57.0 24.6 29% 54 NA 29.79 M
4:55 am MDT W 11.5 10.00 Fair -- 59.0 25.2 27% 57 NA 29.79 M
3:55 am MDT W 10.4 10.00 Fair -- 57.0 25.7 30% 55 NA 29.79 M
2:55 am MDT W 10.4 10.00 Fair -- 61.0 26.2 26% 60 NA 29.80 M
1:55 am MDT W 9.2 10.00 Fair -- 60.0 26.4 27% 59 NA 29.80 M
12:55 am MDT W 11.5 10.00 Fair -- 69.0 23.9 18% NA NA 29.81 M
11:55 pm MDT W 12.7 10.00 Fair -- 67.0 23.0 19% NA NA 29.81 M
10:55 pm MDT W 11.5 10.00 Fair -- 62.0 24.1 23% 61 NA 29.82 M
9:55 pm MDT W 10.4 10.00 Fair -- 66.0 24.8 21% NA NA 29.83 M

Regional Weather Observation


Boysen, WY (KTBX)

Fair
63.0 F

Worland, Worland Municipal Airport, WY (KWRL)

Fair
54.0 F

South Big Horn County Airport, WY (KGEY)

Fair
54.0 F

Riverton Regional Airport, WY (KRIW)

Fair
56.0 F

Cody, WY (KCOD)

Overcast
47.0 F

Powell Municipal Airport, WY (KPOY)

Fair
43.0 F
Advertise Here


Advertise Here